| time (UTC) | temp F | wind direction | speed knots | gust knots | rain 1hr in | rain 24hr in | rain mn in | humidity % | barometer mb |
| 20260504220020 | 77 | 182 | 0.0 | 1.7 | 0.00 | 0.00 | 0.00 | 27 | 1006.4 |
| 20260504214511 | 75 | 86 | 1.7 | 4.3 | 0.00 | 0.00 | 0.00 | 29 | 1006.4 |
| 20260504213112 | 76 | 89 | 0.0 | 3.5 | 0.00 | 0.00 | 0.00 | 29 | 1006.5 |
| 20260504211556 | 75 | 93 | 0.0 | 5.2 | 0.00 | 0.00 | 0.00 | 29 | 1006.6 |
| 20260504210027 | 75 | 42 | 0.0 | 4.3 | 0.00 | 0.00 | 0.00 | 28 | 1006.6 |
| 20260504204531 | 74 | 272 | 0.9 | 3.5 | 0.00 | 0.00 | 0.00 | 28 | 1006.8 |
| 20260504203020 | 74 | 57 | 0.9 | 6.1 | 0.00 | 0.00 | 0.00 | 29 | 1006.8 |
| 20260504201516 | 75 | 292 | 0.0 | 6.1 | 0.00 | 0.00 | 0.00 | 29 | 1006.9 |
| 20260504200006 | 75 | 252 | 0.9 | 4.3 | 0.00 | 0.00 | 0.00 | 27 | 1007.0 |
| 20260504194558 | 74 | 67 | 1.7 | 4.3 | 0.00 | 0.00 | 0.00 | 29 | 1007.0 |
| 20260504193039 | 74 | 101 | 0.0 | 6.1 | 0.00 | 0.00 | 0.00 | 30 | 1007.1 |
| 20260504191539 | 73 | 9 | 0.0 | 4.3 | 0.00 | 0.00 | 0.00 | 32 | 1007.4 |
| 20260504190016 | 73 | 46 | 0.0 | 5.2 | 0.00 | 0.00 | 0.00 | 30 | 1007.6 |
| 20260504184508 | 73 | 341 | 0.0 | 0.9 | 0.00 | 0.00 | 0.00 | 32 | 1007.7 |
| 20260504183055 | 71 | 289 | 0.0 | 5.2 | 0.00 | 0.00 | 0.00 | 35 | 1007.7 |
| 20260504181559 | 71 | 43 | 0.0 | 5.2 | 0.00 | 0.00 | 0.00 | 33 | 1007.8 |
| 20260504180051 | 70 | 287 | 0.9 | 4.3 | 0.00 | 0.00 | 0.00 | 32 | 1007.9 |
| 20260504174535 | 71 | 96 | 0.0 | 5.2 | 0.00 | 0.00 | 0.00 | 33 | 1008.0 |
| 20260504173021 | 69 | 223 | 0.0 | 4.3 | 0.00 | 0.00 | 0.00 | 33 | 1007.9 |
| 20260504171530 | 68 | 314 | 0.0 | 3.5 | 0.00 | 0.00 | 0.00 | 37 | 1008.1 |
| 20260504081519 | 57 | 345 | 0.0 | 0.9 | 0.00 | 0.00 | 0.00 | 45 | 1008.1 |
| 20260504050012 | 63 | 294 | 0.0 | 0.9 | 0.00 | 0.00 | 0.00 | 37 | 1008.6 |
| 20260504044559 | 64 | 293 | 0.0 | 4.3 | 0.00 | 0.00 | 0.00 | 36 | 1008.6 |
| 20260504044501 | 64 | 293 | 0.0 | 4.3 | 0.00 | 0.00 | 0.00 | 36 | 1008.6 |
| 20260504043048 | 64 | 270 | 0.0 | 0.9 | 0.00 | 0.00 | 0.00 | 36 | 1008.5 |
| 20260504041542 | 65 | 252 | 0.0 | 0.9 | 0.00 | 0.00 | 0.00 | 34 | 1008.5 |
| 20260504040041 | 65 | 300 | 0.0 | 1.7 | 0.00 | 0.00 | 0.00 | 34 | 1008.4 |
| 20260504034524 | 65 | 317 | 0.0 | 0.9 | 0.00 | 0.00 | 0.00 | 34 | 1008.3 |
| 20260504033011 | 66 | 294 | 0.0 | 3.5 | 0.00 | 0.00 | 0.00 | 33 | 1008.1 |
| 20260504031509 | 67 | 34 | 0.0 | 0.9 | 0.00 | 0.00 | 0.00 | 32 | 1008.0 |
| 20260504030043 | 68 | 269 | 0.0 | 1.7 | 0.00 | 0.00 | 0.00 | 31 | 1008.0 |
| 20260504024541 | 69 | 304 | 0.0 | 4.3 | 0.00 | 0.00 | 0.00 | 31 | 1007.9 |
| 20260504023031 | 70 | 314 | 0.0 | 3.5 | 0.00 | 0.00 | 0.00 | 30 | 1008.0 |
| 20260504021533 | 71 | 49 | 0.0 | 0.9 | 0.00 | 0.00 | 0.00 | 29 | 1007.9 |
| 20260504020011 | 72 | 163 | 0.0 | 5.2 | 0.00 | 0.00 | 0.00 | 29 | 1008.0 |
| 20260504014607 | 73 | 56 | 0.0 | 5.2 | 0.00 | 0.00 | 0.00 | 26 | 1007.9 |
| 20260504014505 | 73 | 199 | 0.9 | 5.2 | 0.00 | 0.00 | 0.00 | 27 | 1007.9 |
| 20260504013100 | 73 | 311 | 0.0 | 3.5 | 0.00 | 0.00 | 0.00 | 26 | 1008.0 |
| 20260504011549 | 74 | 141 | 0.0 | 3.5 | 0.00 | 0.00 | 0.00 | 25 | 1008.1 |
| 20260504010035 | 75 | 241 | 0.0 | 5.2 | 0.00 | 0.00 | 0.00 | 26 | 1008.2 |
| 20260504004543 | 76 | 40 | 0.0 | 3.5 | 0.00 | 0.00 | 0.00 | 25 | 1008.3 |
| 20260504003028 | 77 | 202 | 0.0 | 6.1 | 0.00 | 0.00 | 0.00 | 23 | 1008.3 |
| 20260504001531 | 77 | 214 | 0.9 | 6.1 | 0.00 | 0.00 | 0.00 | 22 | 1008.5 |
| 20260504000025 | 77 | 30 | 0.0 | 4.3 | 0.00 | 0.00 | 0.00 | 22 | 1008.6 |
| 20260503234515 | 78 | 201 | 0.9 | 7.8 | 0.00 | 0.00 | 0.00 | 23 | 1008.6 |
| 20260503233059 | 78 | 209 | 0.9 | 5.2 | 0.00 | 0.00 | 0.00 | 21 | 1008.7 |
| 20260503233001 | 78 | 257 | 0.9 | 5.2 | 0.00 | 0.00 | 0.00 | 21 | 1008.8 |
| 20260503231551 | 78 | 290 | 0.9 | 6.1 | 0.00 | 0.00 | 0.00 | 23 | 1009.0 |
| 20260503230049 | 77 | 305 | 0.9 | 6.1 | 0.00 | 0.00 | 0.00 | 23 | 1009.2 |
| 20260503224546 | 78 | 123 | 0.9 | 4.3 | 0.00 | 0.00 | 0.00 | 21 | 1009.5 |
| 20260503223029 | 78 | 284 | 0.0 | 4.3 | 0.00 | 0.00 | 0.00 | 23 | 1009.7 |
| 20260503221517 | 78 | 279 | 0.9 | 7.0 | 0.00 | 0.00 | 0.00 | 23 | 1009.9 |